Flag for Australia Weather past 2 weeks in Toowoomba, Queensland, Australia

Now
70 °F

Passing clouds.


Feels Like: 70 °F
Forecast: 47 / 67 °F
Wind: 6 mph from Northeast

Location: Oakey Aerodrome

Current Time: Sep 4, 2015 at 3:54:44 PM

Latest Report: Sep 4, 2015 at 3:00 PM


Visibility: N/A

Pressure: 30.03 "Hg (28.02 "Hg at 597m altitude)

Humidity: 40%

Dew point: 44 °F

Location of ToowoombaLocation

Historic Weather in Toowoomba — Graph

°F

Toowoomba temperature yesterday

Maximum temperature yesterday: 68 °F (at 3:00 PM)
Minimum temperature yesterday: 46 °F (at 10:00 PM)
Average temperature yesterday: 60 °F

Past Weeks' High & Low Weather Summary

 TemperatureHumidityPressure
High79 °F (Aug 24, 3:00 PM)100% (Aug 30, 7:00 AM)30.32 "Hg (Aug 30, 7:00 AM)
Low34 °F (Aug 31, 6:00 AM)21% (Sep 2, 1:00 PM)29.84 "Hg (Sep 3, 4:00 AM)
Average58 °F72%30.12 "Hg
* Reported Aug 20 1:00 PM — Sep 4 1:00 PM, Toowoomba, Weather by CustomWeather, © 2015

Note: Actual official high and low records may vary slightly from our data, if they occured in-between our weather recording intervals... More about our weather records

Advertising

Toowoomba weather history for previous 24 hours

 ConditionsComfort  
Time TempWeatherWind HumidityBarometerVisibility
1:00 PM
Fri, Sep 4
66 °FMild.6 mph48%30.05 "HgN/A
12:00 PM64 °FMild.7 mph50%30.08 "HgN/A
10:00 AM58 °FCool.9 mph67%30.11 "HgN/A
9:00 AM54 °FCool.9 mph76%30.12 "HgN/A
7:00 AM45 °FCool.8 mph91%30.08 "HgN/A
6:00 AM42 °FQuite cool.8 mph92%30.05 "HgN/A
4:00 AM43 °FQuite cool.6 mph85%30.02 "HgN/A
3:00 AM44 °FQuite cool.8 mph86%30.01 "HgN/A
1:00 AM44 °FQuite cool.12 mph85%30.02 "HgN/A
12:00 AM44 °FQuite cool.8 mph86%30.03 "HgN/A
10:00 PM
Thu, Sep 3
46 °FCool.7 mph83%30.04 "HgN/A
9:00 PM48 °FCool.7 mph79%30.02 "HgN/A
7:00 PM57 °FRefreshingly cool.15 mph55%29.97 "HgN/A
6:00 PM60 °FRefreshingly cool.20 mph50%29.93 "HgN/A
4:00 PM65 °FMild.26 mph38%29.87 "HgN/A
3:00 PM68 °FPassing clouds.26 mph36%29.86 "HgN/A
Weather by CustomWeather, © 2015

See weather overviewHow to use our weather pages